Starlink 1376

operational
NORAD ID: 45570 Int'l Des: 2020-025 Owner: SPXS Country: US Constellation: starlink
LEOCIRCULARSTARLINK_TYPE

About Starlink 1376

Description loading...

Live Position

Loading 3D Globe...

Upcoming Passes

Altitude History

Altitude vs Time

uPlot chart will show altitude changes over time

Two-Line Element Set

1 45570U 20025AR 26047.34963486 .00001218 00000-0 54551-4 0 9998
2 45570 53.1619 176.8003 0001506 81.3546 278.7625 15.29357114322239
Epoch: Feb 16, 2026 • Age: 9 hours

Current Status

Altitude 481.0 km
Velocity 7.63 km/s
Sub-Earth Point -11.73°S, 113.3°E
Launch Date Apr 22, 2020
Age 5.8 years
Type internet

Technical Details

Classification Payload
Mass 260.00 kg
Dry Mass 248.00 kg
Total Mass 260.00 kg
Length 0.20 m
Diameter 2.80 m
Span 9.00 m
Shape Box + pan
Manufacturer SPXS
Bus Type Starlink
Phase Status In Orbit
Owner/State SPXS/US

Large Constellations

Loading constellations...